Theta_e
298 297 297 298 297 297 298 297 298 297 295 295 295 294 294 294 292 288 288 290 289 294 294 293 294 296 297 297 297 297 295 303 304 295 294 293 293 301 305 303 304 304 303 304 304 304 305 306 306 307 308 309 309 309 309 309 309 309 309 309 309 309 307 306 304 304 304 306 306 304 305 305 304 304
299 299 298 298 297 297 296 297 297 296 295 294 295 294 293 293 294 288 289 289 288 292 292 294 294 295 296 297 297 296 295 305 304 295 293 293 293 303 304 302 301 301 302 302 302 303 304 305 306 307 308 308 308 308 308 308 308 307 307 308 308 308 307 305 305 304 304 305 305 305 304 305 304 304
299 298 297 296 296 296 297 297 297 297 296 295 294 294 295 295 294 289 286 287 290 292 292 291 294 295 294 295 294 295 295 300 302 295 293 293 301 304 300 301 301 301 301 301 303 304 304 304 304 305 307 307 308 307 308 307 306 306 306 306 306 306 306 305 305 305 306 306 306 306 305 305 305 304
298 297 297 296 296 296 297 297 297 297 297 296 296 297 296 294 292 290 286 286 290 291 292 292 293 293 293 294 292 292 294 297 301 295 294 295 302 296 295 299 300 301 301 301 301 301 301 302 304 305 306 306 306 306 306 304 303 304 304 303 304 304 305 305 304 305 306 306 306 306 305 305 304 304
298 298 297 296 297 297 297 297 297 296 296 296 297 297 295 293 291 291 288 289 290 290 290 291 292 292 292 291 291 291 292 293 294 298 294 295 294 294 294 294 299 300 300 301 300 300 300 301 303 304 304 303 304 304 301 301 302 302 303 301 302 303 303 304 303 304 304 305 306 305 304 303 303 303
299 297 297 296 296 296 296 296 297 296 295 295 294 293 293 291 292 291 289 289 286 287 288 290 290 291 291 290 292 291 291 292 295 293 294 295 294 294 294 294 295 299 301 300 300 300 300 299 300 300 300 299 299 300 300 299 300 300 301 298 298 300 302 303 303 304 304 305 304 303 303 303 303 303
297 297 298 296 296 298 296 296 295 295 294 294 293 292 292 292 291 291 289 286 286 286 288 288 289 289 290 290 290 292 292 294 293 292 293 294 295 296 295 294 295 298 300 300 300 300 299 299 299 299 299 299 299 299 299 299 299 299 299 299 299 300 301 301 302 303 304 304 303 303 302 302 303 302
297 297 297 297 296 296 295 293 293 293 292 292 292 291 291 291 291 291 290 288 287 287 289 288 289 290 289 289 290 292 293 292 293 292 293 293 294 294 295 294 294 297 300 300 300 300 299 299 299 299 299 299 299 299 299 299 299 299 298 299 299 300 300 300 300 301 302 301 301 301 301 302 303 303
298 298 297 296 295 294 293 291 292 291 291 291 291 290 290 290 291 292 291 289 288 286 287 288 287 288 288 289 290 293 291 292 292 292 292 293 293 293 294 295 297 300 300 299 299 299 299 298 299 299 299 299 299 298 298 298 298 299 299 299 299 299 299 300 300 301 300 300 300 300 301 301 302 303
298 298 297 295 294 293 293 291 290 290 290 290 290 289 289 290 289 289 289 289 288 287 287 287 288 286 289 288 288 290 291 290 290 291 293 293 293 292 293 295 296 297 296 295 295 297 297 297 299 299 298 298 298 298 298 298 299 299 299 299 299 299 298 299 299 299 299 299 300 300 299 299 300 301
298 298 296 294 293 293 292 291 291 290 289 291 289 290 289 288 289 289 288 288 287 286 287 286 286 287 288 289 288 290 291 290 290 289 290 291 293 293 293 293 295 295 295 296 297 297 297 299 298 298 297 297 298 298 298 299 299 299 299 298 297 297 297 298 298 298 299 299 299 298 297 297 297 298
297 297 296 294 293 293 292 292 290 291 290 290 290 288 289 288 289 288 288 287 286 286 286 287 286 286 285 288 288 290 288 289 290 291 289 289 290 291 293 292 292 293 294 293 294 296 296 296 296 296 296 297 298 298 298 299 299 300 299 297 298 298 298 297 298 298 298 299 298 297 297 297 297 297
296 295 294 293 292 296 300 300 298 296 295 291 289 288 289 288 289 287 287 288 285 285 286 287 286 285 286 286 286 288 286 288 287 290 289 289 291 290 291 293 293 293 292 292 293 293 294 293 292 292 291 293 297 296 298 298 298 298 298 298 298 298 298 298 298 298 298 298 298 297 297 297 297 296
294 294 293 297 303 305 305 302 299 298 299 299 293 290 290 290 288 287 286 286 287 287 287 287 286 286 287 286 286 287 287 289 289 289 289 288 290 289 289 291 292 295 291 291 291 293 294 292 291 291 291 293 295 294 294 294 296 297 297 297 298 297 297 297 297 297 297 297 297 297 297 296 296 296
294 293 293 294 304 305 304 300 298 298 298 298 298 298 297 296 290 287 287 286 286 289 287 285 285 285 285 287 287 287 289 289 288 288 289 289 289 288 287 286 291 292 292 291 289 290 293 291 290 291 292 293 293 294 294 297 297 297 297 297 297 297 297 297 297 297 297 297 297 296 296 296 296 296
294 293 293 295 298 296 295 294 294 296 296 295 295 294 295 295 297 297 292 291 287 286 286 285 286 285 286 286 287 287 287 289 289 290 289 287 286 287 287 287 287 292 293 290 288 289 292 291 291 290 292 293 293 294 296 297 296 297 297 297 297 297 297 297 297 297 297 296 296 296 296 296 296 295
294 294 295 295 295 296 303 300 290 291 292 297 295 295 296 295 292 290 291 294 293 288 287 287 286 286 286 287 289 291 291 290 287 288 289 289 289 288 287 288 288 292 292 289 287 287 291 291 291 290 292 293 293 294 296 296 296 296 296 296 296 296 296 296 297 296 296 296 296 296 297 297 296 296
293 293 294 295 294 292 296 293 290 291 290 290 290 289 288 290 295 295 293 292 293 294 291 288 288 289 288 290 289 292 291 289 289 288 289 289 289 290 290 291 290 292 292 289 286 286 291 291 289 290 292 293 293 293 295 295 296 296 296 296 296 296 296 296 296 296 296 295 295 296 297 296 296 296
294 294 294 294 293 293 295 295 293 291 289 288 289 289 290 289 290 291 291 290 289 292 291 290 290 290 289 290 291 291 290 290 291 290 290 290 289 289 290 290 290 292 293 290 287 287 290 291 288 291 292 292 292 293 294 295 295 296 296 296 296 296 295 295 295 295 295 295 295 296 295 295 295 295
296 295 294 293 293 294 295 299 295 294 290 289 289 290 288 289 288 290 297 294 294 293 290 290 290 290 291 293 292 293 292 291 291 292 291 290 288 287 288 288 290 290 293 291 288 285 288 290 289 290 292 291 291 292 292 294 295 296 296 295 295 295 295 295 295 295 295 295 295 295 295 295 294 295
297 296 295 294 294 295 295 297 292 292 293 288 288 288 287 287 288 291 289 293 293 293 292 291 292 292 292 292 292 292 292 292 291 289 290 290 288 287 286 288 288 290 291 288 287 285 287 290 288 289 290 291 290 290 291 292 295 295 295 295 295 295 295 295 295 295 295 295 295 295 295 295 295 296
299 299 302 299 295 295 295 294 291 291 293 289 288 287 287 287 288 287 286 289 290 293 292 292 291 291 291 292 292 293 293 293 294 289 289 289 287 289 287 287 287 288 290 289 289 289 288 290 288 286 288 289 289 291 291 293 293 295 294 294 295 295 295 295 294 295 295 295 295 295 295 295 295 296
299 298 303 304 299 297 296 293 291 291 293 289 288 287 286 286 285 285 284 287 286 287 288 287 290 291 293 293 292 294 294 293 296 291 290 288 288 287 288 288 286 286 288 289 290 288 289 288 289 285 285 285 289 290 292 292 292 292 292 293 293 295 295 295 294 295 295 295 295 295 295 295 294 295
297 298 298 301 295 294 293 292 290 290 292 290 288 287 285 284 285 283 284 288 287 287 288 287 288 290 289 289 288 289 290 293 294 290 290 289 289 288 287 288 285 286 284 287 291 287 286 284 288 288 285 283 284 289 291 291 292 292 292 292 292 294 295 295 295 295 295 295 295 295 295 295 295 294
298 296 298 298 296 293 292 291 290 290 291 292 289 288 286 286 287 288 285 290 294 288 290 289 288 290 289 289 289 289 290 292 293 293 291 290 288 289 288 286 287 287 289 291 293 289 286 286 286 286 286 284 285 285 288 289 291 291 292 291 291 292 293 294 295 295 295 295 295 295 294 294 294 294
296 296 298 296 295 292 291 290 290 290 291 290 293 289 289 289 290 289 289 287 287 287 288 287 288 289 288 289 290 291 291 292 293 291 291 291 289 289 289 289 287 286 289 293 293 288 286 286 285 285 286 284 286 287 286 288 290 291 291 292 291 292 292 293 294 294 295 295 295 294 294 294 294 294
295 294 296 297 296 291 290 290 290 290 290 291 291 290 289 289 289 290 287 287 286 285 286 287 288 287 288 289 290 291 291 292 291 291 292 292 290 290 290 290 290 290 292 292 292 290 286 285 288 285 285 285 284 286 287 286 288 291 290 291 291 291 292 293 293 294 295 295 295 295 294 293 293 293
295 293 294 295 293 291 290 290 290 290 290 290 290 289 289 289 290 288 287 285 286 287 286 285 285 287 287 288 289 291 292 291 291 291 292 292 291 289 290 291 292 292 291 290 290 288 287 287 288 288 284 284 284 284 284 287 288 288 288 290 290 291 291 292 293 294 294 295 294 294 293 292 293 292
295 294 293 292 292 291 290 290 289 289 290 289 289 289 288 292 285 286 285 285 285 285 286 286 287 287 289 289 291 291 290 290 291 290 292 292 291 290 290 291 291 292 293 292 290 288 288 286 287 288 287 284 284 285 283 285 285 287 289 288 287 290 290 292 292 292 293 294 294 294 293 293 292 293
291 290 291 292 291 291 291 290 288 288 289 289 289 289 290 287 285 285 284 285 285 286 286 287 287 288 288 289 290 290 288 289 290 289 290 289 291 290 289 290 292 292 293 292 290 289 288 287 286 286 286 288 287 285 285 283 285 288 289 288 287 289 289 291 291 292 293 292 293 293 294 294 293 293
289 289 290 290 290 292 291 290 290 290 290 288 289 287 288 286 285 287 285 286 286 287 287 287 288 289 289 290 289 290 288 289 290 288 289 288 289 289 287 286 289 290 292 292 292 290 289 288 287 286 285 286 287 287 286 282 284 287 288 289 288 284 288 290 291 291 292 292 293 293 294 294 293 294
289 288 289 289 289 288 288 288 287 287 287 287 286 286 285 286 287 290 291 291 287 288 288 288 288 289 289 288 289 289 288 289 290 288 288 288 289 288 286 287 287 287 288 290 291 292 292 289 288 288 285 284 283 286 286 285 286 286 287 288 288 288 288 288 289 290 291 292 292 291 292 293 293 293
288 286 285 285 285 285 286 287 287 286 285 287 287 286 286 286 285 285 285 288 288 289 287 289 289 289 288 289 288 287 287 289 289 287 287 287 287 288 285 285 285 285 285 287 289 290 290 290 291 289 287 285 285 285 281 285 288 287 286 287 287 287 288 289 289 289 291 291 290 291 291 292 293 293
287 285 285 285 285 285 283 284 284 285 285 286 285 286 287 285 285 285 286 286 287 288 287 288 288 288 288 288 289 287 288 289 289 286 288 287 286 285 285 286 286 286 284 285 287 287 288 288 289 290 290 290 287 285 285 284 286 287 287 286 286 286 288 288 288 289 290 290 290 289 289 290 292 293
287 286 285 284 283 283 283 283 284 284 284 284 284 286 284 286 287 286 287 288 287 287 287 287 288 288 288 288 289 288 288 289 289 288 286 285 286 285 285 284 285 285 285 285 286 287 285 286 286 287 288 288 289 290 288 287 285 286 286 287 287 286 287 288 288 288 289 290 290 288 289 290 290 292
286 286 286 285 284 283 283 284 283 283 284 284 285 285 284 286 285 286 287 288 288 287 287 286 285 285 286 287 287 287 287 286 287 287 287 287 286 286 284 284 284 284 284 285 286 286 284 285 283 284 284 284 284 285 288 291 290 285 284 286 287 286 287 287 287 287 288 288 289 288 286 286 288 291
287 286 286 286 286 285 285 285 284 284 285 285 285 286 286 286 285 287 289 286 287 286 288 287 286 286 286 285 286 285 285 284 285 285 285 286 285 284 283 284 284 283 284 286 286 286 285 285 283 282 282 284 283 283 285 288 288 289 284 285 286 287 286 286 286 287 287 287 288 288 287 287 288 291
287 287 286 286 287 287 287 287 286 286 286 286 286 287 288 289 289 288 287 286 287 286 286 286 287 286 287 285 285 286 285 284 283 284 285 285 284 284 284 282 283 283 283 285 285 286 284 283 284 283 283 281 281 283 284 286 286 288 289 286 284 286 286 285 286 285 286 287 287 288 288 288 289 291
288 287 286 286 286 287 288 288 288 287 287 287 287 288 287 287 287 286 286 286 288 288 287 287 287 287 286 286 286 286 286 284 284 285 286 285 284 284 284 282 283 283 282 284 285 286 286 286 285 285 283 281 280 284 282 281 284 288 289 290 287 285 287 285 284 286 285 285 286 287 289 290 291 290
286 285 286 286 287 287 288 289 289 289 289 288 288 288 288 287 287 287 286 285 286 287 288 287 287 287 285 285 285 285 285 286 286 285 285 285 284 282 282 281 281 283 282 283 284 285 285 285 285 285 285 284 285 285 284 284 284 284 286 290 291 288 287 285 285 284 285 286 285 285 286 288 288 290
286 286 286 286 286 286 287 288 289 289 289 289 290 289 289 288 286 286 286 286 285 285 286 287 286 285 286 285 285 286 287 285 284 284 284 282 282 282 282 282 281 281 281 283 283 284 286 287 285 284 284 284 284 284 281 283 285 286 287 288 290 291 291 290 285 284 284 284 283 283 284 285 286 288
288 287 287 286 286 287 288 288 288 288 289 288 288 288 287 286 287 288 287 287 287 286 286 286 286 286 286 286 285 284 286 286 285 284 283 282 282 283 283 281 281 282 281 282 285 285 287 286 284 283 284 281 283 286 284 280 282 284 285 286 288 290 290 291 291 290 286 285 284 282 282 284 285 287
287 287 287 288 288 288 288 288 288 288 289 288 287 287 286 286 286 286 286 287 286 286 286 287 286 285 286 285 284 284 285 285 285 284 284 282 281 282 282 283 282 283 282 282 283 283 284 284 284 284 283 283 280 280 282 283 282 282 284 285 286 287 289 290 290 290 290 289 288 285 281 280 281 283
287 287 288 288 289 288 288 288 288 288 288 288 288 288 286 286 287 287 287 287 287 287 287 286 286 286 286 286 284 283 284 286 285 284 284 283 282 281 280 282 280 281 279 278 282 284 284 283 282 282 283 283 280 281 284 283 284 284 283 284 284 286 287 287 288 289 289 288 290 289 289 288 287 288
287 287 287 286 287 287 287 287 287 288 289 288 287 287 287 286 286 287 286 286 287 287 287 287 287 287 286 285 284 284 286 287 285 283 283 282 280 280 280 280 280 279 280 279 279 284 284 283 283 282 282 282 281 281 281 280 282 282 283 283 285 285 285 285 286 286 286 288 289 289 289 289 288 288
Wind_Speed
5 5 5 6 5 3 3 4 4 4 3 3 4 4 6 7 8 4 3 0 1 0 1 2 3 4 5 6 5 5 5 6 7 4 4 5 5 8 12 11 12 13 14 14 14 15 16 17 17 18 19 20 20 20 20 19 19 20 21 23 24 23 20 17 16 18 19 19 21 25 26 26 25 25
5 5 5 5 6 3 4 4 3 3 3 5 4 4 3 4 8 5 6 2 1 0 1 0 2 4 6 5 5 4 5 7 6 4 4 5 5 11 12 12 12 13 14 15 15 15 16 17 18 19 20 20 21 21 20 20 20 21 23 24 24 22 19 17 18 19 20 20 22 27 27 27 27 25
6 6 6 4 5 3 4 4 3 3 3 5 5 5 5 4 5 7 6 5 1 1 1 1 1 1 4 4 3 4 4 5 5 5 5 5 9 12 9 13 13 14 15 15 15 15 16 15 16 17 18 21 21 21 21 21 20 22 22 21 21 20 19 19 19 20 21 22 25 29 29 30 29 27
5 6 6 4 4 3 4 4 4 4 3 3 5 5 5 5 4 6 5 6 3 2 1 1 3 3 3 4 4 5 5 6 7 5 6 6 9 7 7 9 14 14 15 15 15 15 16 16 15 15 18 20 21 21 21 20 20 18 20 22 22 20 17 19 20 21 23 23 25 29 30 31 30 28
5 5 5 4 3 3 6 4 5 5 5 5 5 5 5 6 3 5 5 6 4 1 1 1 2 3 2 3 2 5 5 6 7 7 6 5 6 7 7 7 10 13 15 15 16 16 16 16 16 18 17 18 18 19 20 20 20 19 19 21 20 16 18 21 20 20 22 23 26 30 32 31 30 28
4 5 6 4 3 3 6 4 5 5 5 5 6 5 6 5 3 1 4 3 2 1 2 4 3 2 1 3 1 3 5 7 6 8 7 6 5 6 7 6 7 13 15 16 16 16 16 16 16 17 18 18 18 19 19 19 19 19 20 20 21 20 17 18 20 21 22 23 27 30 31 30 29 28
4 5 5 4 4 3 6 4 4 4 5 5 7 5 4 5 4 4 4 4 3 3 0 1 2 2 2 1 3 5 3 4 4 5 7 6 7 7 6 6 6 10 14 15 15 15 15 16 17 17 18 18 18 18 19 19 19 19 20 20 21 21 21 20 19 21 22 22 23 27 29 30 28 27
5 6 6 4 4 5 6 4 4 4 5 6 5 5 3 5 5 4 4 3 4 1 1 1 1 2 2 3 3 3 3 3 6 4 6 6 7 8 7 6 6 8 13 14 15 15 15 16 16 17 17 18 18 19 19 19 19 19 20 20 21 21 21 20 20 20 20 20 21 23 26 28 28 27
6 6 6 5 4 6 7 4 5 4 5 4 5 5 4 5 4 3 4 4 3 4 2 1 2 2 2 3 3 1 4 6 5 4 5 6 6 8 8 6 5 7 10 12 15 14 14 15 16 17 18 18 19 19 19 19 19 20 20 20 20 20 21 21 21 22 22 21 21 21 26 26 26 26
5 6 6 5 5 6 7 5 4 5 6 4 5 5 4 4 4 5 3 3 3 3 1 1 1 2 2 3 2 1 3 4 5 7 8 8 4 4 9 10 8 6 5 6 8 10 11 13 16 17 17 18 19 19 19 20 20 20 19 19 20 20 20 20 21 22 21 22 21 22 24 23 24 24
4 5 6 5 5 6 6 7 6 5 5 5 5 5 5 4 5 4 3 3 3 3 1 1 1 2 2 1 4 4 4 3 2 2 8 8 8 7 5 8 9 8 8 8 11 12 12 13 12 15 18 18 19 19 19 19 20 19 19 19 19 19 20 21 22 23 23 21 20 19 18 17 19 23
5 5 5 5 5 6 6 6 5 6 6 4 5 4 4 4 5 4 3 3 3 2 1 0 1 2 2 4 3 3 3 5 5 2 1 6 8 9 8 6 6 7 7 8 9 10 10 10 13 15 15 17 18 19 17 17 19 19 18 18 18 19 21 22 22 22 22 22 21 20 19 19 22 21
5 5 5 5 5 4 7 9 7 7 7 6 6 3 4 4 5 3 3 3 3 2 1 1 1 1 3 2 3 6 3 5 5 5 1 4 6 6 7 10 7 3 5 7 8 9 8 8 9 8 8 10 13 13 16 14 16 18 19 19 18 19 21 22 23 23 22 22 21 21 20 20 22 18
4 5 5 5 9 9 10 9 9 9 8 7 7 6 5 4 4 4 3 2 2 1 1 1 1 3 5 4 2 2 3 3 4 6 5 6 7 6 6 8 5 6 4 7 10 11 8 5 8 8 8 9 10 9 9 10 15 19 20 20 18 19 21 22 23 22 23 23 22 21 20 21 21 19
5 4 4 4 6 7 7 7 10 9 8 8 8 8 7 6 5 4 3 2 3 3 1 2 1 1 3 5 2 3 5 3 3 3 4 5 5 5 6 7 9 2 4 6 6 10 10 4 7 9 9 9 9 10 10 18 20 20 20 20 19 20 21 22 22 22 22 23 22 21 20 20 21 22
5 5 4 3 3 5 5 5 5 6 6 7 6 6 6 5 6 5 4 3 3 3 2 1 2 1 2 3 4 3 1 5 6 5 5 3 3 5 5 6 6 7 4 6 6 10 10 5 6 8 9 9 9 11 16 20 19 20 20 20 20 20 21 22 21 21 22 22 22 21 20 19 19 18
6 5 5 4 3 4 9 5 4 4 3 3 5 5 5 5 6 7 7 7 3 5 3 2 1 4 1 2 3 1 1 0 3 4 6 5 6 4 6 6 5 11 4 4 4 7 10 6 8 9 10 9 9 11 14 18 19 19 19 20 20 20 21 21 21 21 21 21 21 21 20 20 20 21
7 6 6 6 4 3 3 4 4 3 4 3 3 2 2 2 1 3 7 8 7 5 4 3 2 3 3 3 4 3 0 2 3 3 5 5 5 7 7 8 8 10 3 3 2 5 10 7 7 9 10 8 10 10 14 18 18 18 19 19 19 20 21 21 21 21 21 20 20 20 20 20 18 18
8 7 7 7 7 6 4 5 5 5 4 4 3 3 1 1 1 1 2 4 4 4 4 4 5 4 4 5 6 6 3 4 5 4 5 4 4 6 7 7 4 9 2 0 2 6 10 7 7 10 10 9 10 10 12 15 17 18 18 19 19 20 21 21 21 21 21 21 20 20 19 19 19 17
8 7 7 7 6 6 6 6 10 8 5 4 4 3 1 1 1 1 2 3 4 4 5 5 5 5 4 6 6 6 5 4 4 3 3 2 1 3 7 7 8 5 7 2 0 3 8 6 5 10 10 9 10 11 9 12 16 18 18 18 19 20 20 21 22 21 21 20 21 20 20 20 22 20
6 6 6 7 6 6 6 7 10 10 8 4 4 4 2 0 0 2 1 2 3 6 7 7 8 9 10 10 11 10 10 6 4 1 6 7 3 6 6 7 6 9 7 2 0 3 8 8 5 9 10 10 10 9 10 9 13 17 17 18 19 20 19 20 21 21 20 20 21 21 20 21 23 22
6 6 11 8 7 7 7 9 11 11 8 5 4 4 3 2 1 2 2 2 2 3 4 6 7 9 9 9 10 7 6 7 5 1 4 4 2 6 4 5 5 8 7 3 0 6 7 9 4 5 8 8 6 8 8 11 12 14 12 15 18 19 19 19 20 21 20 20 21 21 19 21 23 14
6 5 8 12 10 9 9 12 12 12 8 5 5 5 4 3 2 3 1 1 2 3 4 2 4 3 4 5 5 6 11 4 4 3 3 2 1 4 6 5 5 6 6 2 1 6 8 7 7 4 7 5 7 5 9 12 11 10 9 10 12 17 19 18 18 19 19 19 20 20 20 20 19 11
5 5 6 9 13 13 12 13 14 13 11 7 5 4 4 4 3 3 2 1 1 1 1 3 3 5 5 5 4 5 5 6 1 2 3 3 3 3 5 6 3 3 5 3 3 5 5 1 8 5 1 5 8 11 11 12 11 10 10 11 11 15 16 16 14 17 17 17 18 18 20 19 17 10
6 6 6 6 10 13 12 14 14 13 12 8 6 6 5 6 3 6 3 1 3 1 1 2 4 5 5 4 4 5 5 6 5 3 0 2 4 3 3 6 6 6 7 4 4 5 4 4 7 6 5 2 5 7 10 10 10 9 11 11 11 12 11 11 11 11 13 16 15 16 17 19 18 12
6 7 7 6 9 13 13 14 14 14 12 11 5 7 8 6 7 4 2 2 1 2 2 4 5 6 6 6 6 6 6 6 6 4 5 4 2 4 5 4 5 5 7 8 8 3 4 6 3 6 6 4 8 7 9 9 8 9 11 11 10 11 10 11 11 11 11 10 9 10 12 17 18 17
7 6 6 6 10 13 13 14 15 14 13 9 7 9 7 8 7 4 2 1 1 2 2 3 5 6 5 5 6 6 6 7 5 6 6 6 4 3 3 4 7 8 9 8 4 3 1 5 5 4 7 5 6 9 8 9 12 12 11 12 13 11 9 9 11 11 11 10 9 13 11 12 16 18
7 7 6 7 11 13 14 14 13 13 11 9 11 8 8 8 6 2 2 1 0 0 1 3 4 6 6 4 6 6 5 5 6 7 6 7 5 4 6 7 5 5 7 6 4 3 2 4 8 7 4 5 7 7 10 10 9 10 11 12 10 9 9 9 11 11 11 10 10 9 8 8 9 10
7 8 11 11 12 12 13 13 11 8 10 12 8 7 8 7 3 3 2 2 1 1 4 4 5 6 7 6 6 6 5 5 5 4 6 5 4 4 4 5 5 5 4 4 4 3 2 3 6 8 8 3 4 7 5 8 8 11 11 12 13 15 12 10 10 10 11 11 10 10 8 7 7 6
9 10 10 12 11 10 9 6 4 5 7 9 7 7 7 4 4 3 3 2 2 5 5 5 6 7 6 6 5 4 4 5 7 4 3 5 7 6 7 8 10 10 9 7 5 3 3 2 4 5 7 9 6 6 6 6 9 11 11 10 10 10 6 10 12 11 11 12 10 9 7 6 6 6
5 6 6 7 8 7 10 10 8 8 5 4 4 4 4 5 5 4 5 5 5 5 6 6 6 6 6 4 5 6 4 6 6 1 2 3 5 4 5 4 7 8 11 11 9 2 1 3 3 2 6 8 8 7 7 3 7 11 12 11 10 10 11 11 11 12 11 11 10 9 8 7 6 4
3 3 4 4 3 3 3 3 2 4 3 4 4 4 4 4 3 3 4 3 3 5 5 6 5 6 5 6 6 5 5 6 7 2 1 1 5 4 3 5 7 6 8 10 11 12 9 4 5 5 3 5 5 8 6 5 7 8 11 11 11 10 8 9 10 11 12 11 11 11 9 8 9 8
3 4 4 3 3 3 4 4 6 5 5 6 5 4 4 4 3 3 3 5 6 6 4 6 6 7 5 6 5 4 5 6 6 0 1 1 2 4 1 2 6 5 7 9 9 10 9 11 10 7 6 4 6 6 2 7 8 8 9 11 10 11 11 9 9 11 11 11 12 11 11 9 8 8
6 4 5 5 5 5 5 6 6 7 7 7 6 6 4 3 3 4 5 6 7 5 6 6 5 7 5 6 6 5 6 6 6 2 1 2 1 2 3 5 6 6 4 7 8 7 8 9 10 12 10 7 1 4 3 2 7 9 9 9 8 11 11 9 9 10 9 8 10 12 12 11 10 9
6 5 6 6 5 6 6 6 7 7 7 7 7 7 4 3 4 4 6 7 5 5 5 6 6 6 6 7 7 6 6 6 6 3 1 1 2 3 2 4 6 6 6 8 9 7 6 7 8 9 11 10 13 6 4 3 3 7 9 9 9 9 11 11 9 9 9 10 9 11 12 12 12 11
7 6 6 6 6 6 6 7 5 6 7 6 6 5 3 5 5 5 6 6 5 6 6 6 6 6 6 7 7 6 7 5 6 5 5 4 4 4 2 3 3 5 6 6 8 6 5 5 5 6 7 9 8 9 11 3 4 3 5 9 10 9 11 11 11 7 7 10 10 10 11 12 12 12
7 6 6 7 6 7 7 6 6 6 6 6 6 6 6 6 6 6 6 4 5 5 6 5 6 6 6 6 6 5 5 5 6 4 4 5 4 3 3 6 5 4 6 8 6 6 3 4 3 4 6 8 8 9 10 7 4 4 2 7 9 9 9 10 9 12 10 7 10 10 9 10 11 12
8 7 8 7 7 7 6 6 6 6 6 6 6 6 6 6 6 5 2 3 6 6 5 5 6 6 6 6 6 6 6 5 3 3 5 4 4 4 3 3 6 6 6 8 7 6 3 3 4 3 3 5 7 7 9 8 9 5 6 3 6 10 7 9 11 10 12 10 8 9 8 9 10 10
7 8 8 8 8 7 7 7 7 7 7 6 6 7 6 6 6 5 4 6 5 6 4 4 5 6 6 6 6 6 7 5 4 6 6 6 4 3 4 3 6 5 4 7 7 7 5 5 6 6 3 3 4 7 5 6 7 10 11 9 5 7 8 8 8 10 9 9 11 11 8 6 10 12
6 6 6 7 7 7 7 6 7 7 7 8 7 7 6 7 6 6 6 6 5 5 4 5 6 5 5 6 6 6 4 5 6 5 6 5 3 3 4 3 3 5 4 6 7 8 7 6 4 6 6 6 8 8 6 7 8 7 8 6 1 2 7 6 7 7 9 9 8 9 11 10 10 9
7 8 8 7 6 6 7 7 7 7 7 7 7 6 7 6 6 6 6 5 4 4 5 6 4 5 6 5 6 7 7 6 4 6 5 4 4 4 4 3 3 2 2 6 6 7 7 5 4 8 7 6 7 5 1 5 8 10 10 11 16 11 7 6 5 5 6 5 6 8 10 11 10 10
8 9 7 7 7 8 7 7 7 7 7 6 6 6 6 6 7 6 6 5 4 4 6 6 6 5 6 6 6 6 7 6 6 7 6 4 4 4 3 2 4 3 1 5 7 7 8 4 4 3 4 3 4 9 7 4 6 8 8 9 10 14 15 12 10 8 4 4 6 6 6 8 7 10
7 7 7 7 7 6 6 7 7 7 7 6 7 7 7 6 5 6 6 6 5 4 6 6 6 6 6 6 6 7 7 6 6 6 5 4 4 5 5 5 4 4 3 5 6 6 8 6 5 5 3 5 3 2 5 6 5 5 7 8 10 9 11 16 13 11 9 5 4 5 3 1 3 9
7 8 8 7 7 8 8 8 7 7 7 6 7 7 6 6 6 6 5 6 5 6 5 6 6 6 6 6 6 5 5 7 6 6 6 6 5 5 5 5 4 4 2 3 6 7 6 5 3 3 4 5 3 4 6 6 7 6 6 7 6 8 11 10 12 11 8 8 13 13 6 7 10 11
7 7 7 7 7 7 7 7 7 7 7 7 6 6 6 6 6 6 5 5 6 6 6 6 6 6 6 5 6 7 7 6 6 6 5 4 4 5 4 4 4 4 4 3 2 7 6 6 5 3 1 3 1 1 3 3 5 6 6 6 9 8 8 8 10 11 9 9 13 16 15 14 9 6
Wind_Direction
117 106 109 113 115 104 99 88 89 95 83 94 129 146 155 152 132 150 140 239 174 328 358 52 310 6 359 354 347 0 6 351 7 357 347 335 324 314 326 326 327 327 326 324 323 319 319 321 321 321 325 327 327 325 322 318 314 309 301 292 288 285 284 286 289 291 296 303 312 317 317 314 311 308
118 113 99 105 101 90 86 90 86 84 90 87 92 96 125 146 149 161 142 162 205 12 315 88 341 334 343 352 346 360 345 333 355 346 337 326 311 314 322 323 325 325 322 322 321 319 317 316 317 320 322 323 324 322 320 319 317 312 308 304 298 290 281 279 284 289 292 299 309 316 315 312 308 305
120 117 108 96 97 90 95 86 82 81 86 85 76 73 86 77 124 131 121 117 257 159 1 302 287 309 313 334 330 340 334 329 341 338 328 317 310 319 318 323 324 323 321 319 317 314 316 313 310 313 316 321 321 320 319 317 315 312 309 307 305 295 280 279 283 286 290 299 307 312 314 314 309 303
119 117 116 111 115 112 102 94 95 95 85 93 82 74 69 64 88 106 106 113 150 244 189 269 288 328 317 312 357 342 339 337 341 334 323 315 320 322 320 318 320 318 315 314 314 315 316 316 312 313 317 320 319 318 317 315 313 311 311 313 312 304 281 279 280 284 290 297 303 310 315 313 309 303
118 120 120 127 131 134 108 114 108 100 101 86 82 80 79 72 50 92 98 110 133 326 253 254 288 303 337 336 3 354 344 336 333 330 320 318 319 313 310 311 308 311 311 313 315 317 318 319 317 319 317 316 314 314 314 313 314 313 314 316 314 302 290 284 282 282 287 294 303 312 314 313 308 302
126 128 128 135 134 120 113 114 105 116 105 102 88 71 89 85 63 126 107 120 122 158 320 350 313 317 32 345 332 16 335 325 329 323 318 317 314 311 309 309 307 309 313 313 314 316 317 318 318 317 317 315 314 313 312 313 315 317 317 316 314 311 299 286 284 286 292 298 306 312 313 311 307 302
138 131 136 141 137 121 98 92 102 103 99 98 99 97 97 98 77 58 100 115 108 116 25 262 317 322 326 302 299 330 314 301 291 299 315 320 315 312 307 304 300 303 306 309 314 318 320 320 318 316 313 313 311 312 314 316 317 317 316 316 314 312 308 301 294 296 296 298 304 308 310 310 306 300
148 147 138 152 142 122 109 113 105 96 102 102 106 103 100 105 96 80 78 93 134 159 103 312 214 277 321 295 280 285 295 300 319 304 301 311 314 308 310 308 300 302 310 315 318 320 320 317 314 312 311 312 314 315 317 317 316 316 315 313 312 311 309 306 303 301 298 297 302 302 305 308 306 302
151 150 149 154 142 126 119 124 119 125 109 113 108 110 117 109 109 86 87 87 95 120 131 282 272 278 269 251 281 296 0 329 325 318 314 313 303 304 305 309 305 311 318 317 317 319 319 317 315 315 315 315 316 315 315 315 314 312 311 310 310 311 310 310 308 307 304 301 300 300 306 309 305 301
155 150 150 152 147 137 136 147 140 130 125 119 114 118 117 114 104 100 84 90 97 108 165 193 303 336 322 333 305 263 14 323 321 327 326 328 328 339 335 328 324 328 325 320 320 321 322 318 314 312 313 314 314 315 314 313 311 309 308 309 310 311 312 311 309 307 305 305 302 302 305 303 302 298
141 146 148 151 154 145 144 147 151 142 133 131 138 144 138 128 106 103 108 103 96 103 88 298 250 279 279 277 308 303 322 272 213 308 335 334 321 328 330 320 322 324 325 318 310 313 316 315 316 315 316 315 315 314 313 312 310 309 309 309 310 313 314 313 311 311 309 306 303 300 297 294 292 294
146 150 152 157 166 157 158 151 159 146 144 138 137 157 128 124 107 116 120 96 105 93 65 166 287 300 292 327 279 292 347 2 343 63 337 311 322 330 325 303 301 306 323 324 327 322 323 324 321 319 317 313 311 312 313 311 309 310 310 309 312 315 316 316 316 314 312 309 305 302 298 295 297 295
143 150 157 166 171 168 165 161 156 163 150 146 146 179 138 127 118 117 100 123 111 95 108 332 294 319 326 283 332 331 327 343 306 304 356 296 306 310 318 318 310 295 322 316 321 321 325 322 315 310 309 307 311 310 310 309 307 312 314 313 313 315 320 321 319 317 315 312 307 305 301 296 298 294
158 159 163 177 176 172 160 154 157 158 156 154 152 165 157 143 131 140 131 141 158 153 109 289 319 2 320 301 285 271 270 278 300 325 339 330 314 330 323 314 305 326 339 338 328 314 311 317 303 308 308 306 311 312 313 312 316 318 317 315 313 318 324 325 323 321 319 316 312 306 302 299 295 290
171 176 176 177 174 159 152 153 158 162 165 153 150 161 169 164 153 152 149 190 173 176 190 185 151 207 283 296 260 257 278 301 302 287 300 288 312 341 345 331 309 290 48 331 319 308 307 319 305 307 308 308 313 313 310 313 317 319 318 315 314 319 326 326 325 324 322 320 317 312 305 299 295 292
170 173 176 189 158 151 160 164 165 172 171 166 154 159 175 195 206 197 170 167 181 181 173 193 217 196 245 264 301 285 323 318 324 318 322 296 326 330 332 309 315 295 33 336 318 298 301 319 305 314 312 312 311 310 310 313 318 320 318 316 315 320 326 326 326 327 326 325 324 323 316 305 297 289
168 169 166 169 167 179 175 166 168 175 181 171 164 160 173 200 208 226 234 222 184 160 154 179 231 208 217 288 276 207 293 205 296 313 326 326 329 317 310 303 299 302 356 336 304 303 302 317 324 318 310 313 313 312 313 315 318 318 317 315 317 322 327 328 328 329 330 329 329 329 326 314 300 292
169 170 168 167 181 213 189 159 169 166 159 142 124 104 97 134 202 223 217 221 208 184 172 162 191 240 176 224 253 277 197 293 284 299 301 314 325 319 306 295 288 282 295 261 286 298 313 329 325 317 313 318 315 310 309 312 314 315 316 319 321 326 330 330 331 332 333 332 331 331 330 324 308 288
173 176 174 174 181 183 194 181 175 161 163 142 135 118 72 24 3 69 139 177 179 191 195 197 216 231 221 243 258 275 245 228 237 217 233 262 265 282 288 299 280 303 298 345 23 312 309 320 329 313 316 321 312 306 308 309 311 314 319 321 323 328 332 333 334 334 333 333 333 331 329 326 321 301
184 178 175 177 180 180 190 195 186 177 155 145 149 140 93 35 358 256 226 235 207 187 185 201 214 225 228 238 257 266 270 267 250 238 245 221 213 340 339 330 316 312 310 353 292 283 303 308 335 311 313 316 310 307 305 303 309 317 321 322 326 329 333 337 336 335 334 335 335 333 334 334 330 314
181 184 183 181 175 181 197 192 186 176 155 147 155 155 142 282 38 230 287 278 241 215 214 223 240 257 265 267 267 268 265 245 233 28 8 341 356 360 346 319 327 312 315 307 144 270 296 315 330 311 315 316 304 305 307 312 319 320 322 324 328 329 332 339 338 335 335 337 339 338 338 337 334 324
181 191 196 182 178 184 202 188 186 182 164 159 163 158 152 151 193 263 301 332 342 342 273 258 260 264 265 267 273 263 197 211 217 115 325 285 30 329 320 300 302 299 309 274 142 341 301 310 317 304 295 304 290 301 309 323 322 323 325 327 330 328 331 339 340 337 338 343 344 336 339 346 346 335
178 203 208 197 188 188 194 184 187 187 179 167 171 169 149 162 200 235 211 337 353 357 12 336 333 303 302 332 335 317 313 316 203 180 210 211 184 294 306 302 304 329 303 273 84 357 307 327 317 26 328 323 290 289 321 323 322 323 326 333 331 330 333 339 340 338 339 342 342 339 344 350 354 343
195 205 210 207 195 195 185 184 186 190 186 173 174 148 161 177 215 220 175 206 131 77 337 305 306 277 278 296 322 325 325 318 255 186 188 190 186 238 289 297 295 281 262 269 51 358 276 308 307 349 342 305 319 324 325 322 324 322 330 336 335 332 333 340 341 340 339 341 341 341 347 347 355 353
191 206 209 204 193 192 187 186 187 190 195 178 165 175 180 196 195 146 142 151 86 69 341 320 314 311 317 317 318 320 315 302 302 316 297 176 183 203 265 302 309 297 274 279 47 8 298 309 301 326 318 288 263 309 309 312 316 331 335 336 335 331 335 343 340 340 341 340 337 341 348 346 349 357
188 195 195 189 190 189 191 190 190 193 194 187 171 199 200 173 149 148 149 134 84 42 19 342 332 330 336 328 321 319 314 304 309 320 315 303 215 199 205 223 259 283 294 309 7 331 311 306 305 325 301 338 308 315 317 320 312 328 331 332 336 327 332 338 339 338 341 337 337 340 343 349 348 350
196 189 189 190 181 185 193 195 194 196 196 184 204 206 181 166 167 134 112 112 79 34 1 356 322 309 310 313 303 306 304 304 314 316 314 301 303 297 248 215 212 236 268 292 304 286 240 280 311 334 314 310 300 314 319 328 326 331 334 337 335 330 335 338 337 335 336 338 335 335 342 350 352 346
185 181 189 189 181 189 195 200 200 200 188 199 209 186 172 160 158 142 133 102 104 70 355 322 298 290 281 274 281 270 272 288 304 303 300 300 302 296 313 310 292 247 256 263 279 270 240 278 311 318 306 295 316 323 322 308 309 322 328 327 324 324 330 336 336 334 336 336 336 341 344 350 351 348
187 194 185 182 180 190 198 203 206 203 206 211 195 174 160 161 146 156 151 158 133 304 274 265 265 270 264 249 257 278 293 293 294 297 308 299 300 322 321 304 287 292 301 306 313 306 266 278 293 310 324 306 312 300 303 297 305 316 333 336 336 334 330 336 332 332 336 338 339 337 339 334 340 344
183 180 179 184 188 191 194 184 184 197 214 217 192 167 167 170 173 166 161 164 180 241 250 245 249 254 269 275 270 275 281 292 286 305 309 332 326 349 350 345 331 326 323 323 326 304 314 306 292 305 315 320 325 307 304 322 319 318 328 336 317 300 296 336 334 332 340 342 335 332 331 330 323 335
157 167 172 183 189 193 190 191 196 203 198 177 185 193 185 184 191 187 188 194 207 235 245 253 252 257 261 283 302 293 311 295 282 216 262 305 293 337 329 346 319 327 322 323 324 328 299 308 307 301 322 313 314 313 307 301 296 323 328 331 340 340 319 327 330 334 339 337 335 337 339 346 341 339
142 127 102 95 91 120 115 173 176 210 198 200 191 198 193 202 200 205 203 215 224 243 236 257 272 280 279 283 272 289 289 273 279 263 210 271 298 321 335 4 322 317 318 322 326 330 341 344 338 315 266 259 279 300 322 313 309 320 322 326 329 318 321 335 329 331 336 334 345 347 341 346 349 352
86 91 93 92 106 134 161 177 202 209 204 220 214 209 212 208 202 197 185 223 238 238 226 243 247 259 274 273 272 271 282 271 267 215 302 264 238 298 75 341 292 310 319 316 318 322 330 330 332 321 287 246 238 255 268 330 330 331 328 322 327 324 330 335 334 326 330 342 349 345 347 350 352 352
139 147 152 171 165 168 168 191 204 207 204 209 218 227 220 200 203 213 215 225 241 233 223 239 243 253 257 271 273 264 254 277 279 233 202 266 265 308 341 329 307 308 308 300 308 311 325 331 334 332 335 334 241 202 207 265 310 323 324 320 324 329 325 332 333 328 333 346 337 341 347 351 352 358
163 169 177 193 190 189 186 196 205 201 199 207 209 227 228 220 220 229 223 234 232 232 237 236 235 244 234 252 259 257 252 244 270 292 219 186 272 252 291 321 307 314 319 315 310 316 337 332 342 342 341 348 349 335 182 176 327 310 322 326 331 331 327 330 332 331 338 341 350 349 345 349 351 353
192 184 189 193 200 191 192 210 204 202 205 207 205 213 230 246 227 215 237 232 210 226 225 232 234 232 231 237 249 246 250 246 256 265 301 304 287 304 318 268 263 288 299 291 295 312 329 330 2 356 346 337 349 340 331 193 171 285 323 323 330 334 328 331 329 326 347 345 350 355 349 344 339 345
183 198 201 203 205 199 205 201 201 208 207 209 212 207 214 231 230 211 228 195 210 223 225 220 238 236 237 233 239 241 245 226 242 243 256 276 264 244 303 309 306 304 315 300 301 301 322 330 2 19 356 344 351 333 307 312 281 203 198 329 322 330 328 327 337 342 344 349 340 354 343 329 335 338
194 197 204 211 213 209 208 205 200 206 212 213 217 220 224 231 239 236 205 200 234 235 232 228 250 247 242 225 224 243 235 225 231 258 261 258 274 295 282 280 294 306 301 296 304 305 301 289 334 349 16 342 329 325 320 317 332 315 180 315 307 316 327 343 344 345 330 336 345 333 329 332 326 324
202 199 201 209 213 208 207 207 198 209 210 210 214 220 224 231 237 254 246 238 242 244 243 240 250 245 242 236 223 221 216 203 221 240 250 247 219 237 284 289 302 303 324 313 317 319 340 353 342 336 326 285 281 285 266 282 287 301 318 308 251 318 335 345 330 326 332 334 336 332 318 278 268 275
206 206 213 210 216 207 212 200 206 209 209 211 213 214 212 220 224 227 238 241 244 246 237 247 252 251 238 226 219 221 220 204 214 229 235 247 252 225 248 255 250 276 312 306 321 316 326 318 334 318 297 263 250 254 259 254 263 275 298 313 193 316 301 328 328 328 323 330 329 335 334 338 355 352
202 208 218 208 211 209 208 209 208 207 214 214 215 213 215 217 219 229 232 241 236 244 251 254 246 239 242 226 207 193 205 226 229 241 245 240 250 252 248 237 280 218 275 301 301 308 297 296 295 284 270 272 276 273 349 353 345 334 335 321 327 343 328 300 285 302 300 307 330 323 333 339 337 341
198 211 211 201 208 212 207 210 209 209 216 210 213 214 217 218 225 236 242 252 248 248 255 265 261 246 247 230 208 196 199 213 224 235 225 214 242 267 253 200 262 276 262 292 288 277 283 317 312 287 284 308 352 25 355 313 310 318 318 316 318 330 337 347 351 319 260 286 343 340 320 329 340 355
196 209 212 211 210 211 214 217 214 210 216 208 213 215 215 224 230 238 243 246 244 241 248 256 253 241 244 230 204 195 198 219 229 237 236 225 217 241 269 265 239 254 246 262 271 275 289 306 318 344 347 45 50 90 350 316 294 294 316 329 327 328 332 341 354 351 344 321 227 221 203 252 341 350
199 203 213 207 203 208 214 212 214 211 211 210 214 207 206 213 229 235 235 242 244 246 244 246 251 238 237 228 201 197 205 219 217 216 232 234 217 212 224 252 264 270 259 257 294 300 304 315 329 358 13 352 326 13 338 333 333 322 310 302 311 343 344 337 336 356 11 10 11 2 332 221 224 244
199 203 205 205 206 207 209 210 209 208 205 207 196 201 207 212 230 241 243 238 243 244 245 246 247 240 231 214 186 208 225 218 212 220 221 236 234 223 224 232 256 273 277 260 295 306 317 323 321 336 357 343 307 293 270 255 282 311 320 337 343 343 343 343 349 351 349 351 357 357 1 9 1 329